Weather History for Green Bay, WI

Change the Weather History Date:

Saturday, June 8, 2013

  Actual Average Record
Temperature  
Mean Temperature 61 °F 63 °F  
Max Temperature 71 °F 73 °F 93 °F (2011)
Min Temperature 51 °F 52 °F 36 °F (1998)
Degree Days  
Heating Degree Days 4 4  
Month to date heating degree days 57 40  
Since 1 June heating degree days 57 40  
Since 1 July heating degree days 7699 7903  
Cooling Degree Days 0 2  
Month to date cooling degree days 3 11  
Year to date cooling degree days 41 29  
Since 1 June cooling degree days 3 11  
Growing Degree Days 12 (Base 50)    
Moisture  
Dew Point 50 °F    
Average Humidity 71    
Maximum Humidity 93    
Minimum Humidity 49    
Precipitation  
Precipitation 0.00 in 0.14 in 1.73 in (1993)
Month to date precipitation 1.16 1.04  
Year to date precipitation 14.93 10.69  
Snow  
Snow 0.00 in 0.00 in 0.00 in ()
Month to date snowfall 0.0 0.0  
Since 1 June snowfall 0.0 0.0  
Since 1 July snowfall 74.2 51.4  
Snow Depth 0.00 in    
Sea Level Pressure  
Sea Level Pressure 29.99 in    
Wind  
Wind Speed 4 mph (SE)    
Max Wind Speed 16 mph    
Max Gust Speed 20 mph    
Visibility 10 miles    
Events      
T = Trace of Precipitation, MM = Missing Value Source: NWS Daily Summary

Daily Weather History Graph

Daily Weather History Graph

Search for Another Location

Airport:

Trip Planner

Search our weather history database for the weather conditions in past years. The results will help you decide how hot, cold, wet, or windy it might be!

Date:

Astronomy

Jun. 08, 2013 Rise Set
Actual Time 5:08 AM CDT 8:35 PM CDT
Civil Twilight 4:31 AM CDT 9:12 PM CDT
Nautical Twilight 3:43 AM CDT 9:59 PM CDT
Astronomical Twilight 2:43 AM CDT 11:01 PM CDT
Moon 5:18 AM CDT (6/8) 8:35 PM CDT (6/8)
Length of Visible Light 16h 40m
Length of Day
15h 27m
New Moon, 0% of the Moon is Illuminated
Jun 8
New Moon
Jun 16
First Quarter
Jun 23
Full
Jun 29
Last Quarter
Jul 8
New

Hourly Weather History & Observations

Time (CDT) Temp. Dew Point Humidity Pressure Visibility Wind Dir Wind Speed Gust Speed Precip Events Conditions
12:53 AM 55.9 °F 50.0 °F 80% 29.94 in 10.0 mi Calm Calm - N/A   Clear
1:53 AM 55.0 °F 52.0 °F 89% 29.93 in 10.0 mi Calm Calm - N/A   Scattered Clouds
2:53 AM 54.0 °F 51.1 °F 90% 29.94 in 10.0 mi WNW 3.5 mph - N/A   Mostly Cloudy
3:53 AM 53.1 °F 51.1 °F 93% 29.94 in 10.0 mi Calm Calm - N/A   Partly Cloudy
4:53 AM 53.1 °F 51.1 °F 93% 29.95 in 10.0 mi Calm Calm - N/A   Mostly Cloudy
5:53 AM 53.1 °F 51.1 °F 93% 29.96 in 9.0 mi NNE 5.8 mph - N/A   Partly Cloudy
6:53 AM 55.9 °F 52.0 °F 87% 29.97 in 9.0 mi Calm Calm - N/A   Scattered Clouds
7:53 AM 57.0 °F 52.0 °F 83% 29.98 in 10.0 mi Calm Calm - N/A   Overcast
8:53 AM 59.0 °F 52.0 °F 78% 29.99 in 10.0 mi Calm Calm - N/A   Overcast
9:53 AM 61.0 °F 46.0 °F 58% 30.01 in 10.0 mi Calm Calm - N/A   Overcast
10:53 AM 66.0 °F 51.1 °F 59% 30.01 in 10.0 mi SE 4.6 mph - N/A   Partly Cloudy
11:53 AM 68.0 °F 48.9 °F 50% 30.01 in 10.0 mi SE 10.4 mph - N/A   Mostly Cloudy
12:53 PM 69.1 °F 51.1 °F 53% 30.01 in 10.0 mi SSE 10.4 mph - N/A   Clear
1:53 PM 69.1 °F 50.0 °F 51% 30.00 in 10.0 mi SE 5.8 mph - N/A   Partly Cloudy
2:53 PM 71.1 °F 52.0 °F 51% 29.99 in 10.0 mi North - - N/A   Mostly Cloudy
3:53 PM 68.0 °F 55.0 °F 63% 30.01 in 10.0 mi South 12.7 mph - N/A   Mostly Cloudy
4:53 PM 68.0 °F 51.1 °F 55% 30.01 in 10.0 mi SE 6.9 mph - N/A   Overcast
5:53 PM 69.1 °F 50.0 °F 51% 30.01 in 10.0 mi SW 4.6 mph - N/A   Overcast
6:53 PM 68.0 °F 48.0 °F 49% 30.02 in 10.0 mi SE 5.8 mph - N/A   Mostly Cloudy
7:53 PM 64.9 °F 48.9 °F 56% 30.02 in 10.0 mi SE 8.1 mph - N/A   Clear
8:53 PM 61.0 °F 50.0 °F 67% 30.03 in 10.0 mi ESE 5.8 mph - N/A   Clear
9:53 PM 57.0 °F 50.0 °F 77% 30.04 in 10.0 mi East 5.8 mph - N/A   Clear
10:53 PM 57.0 °F 48.0 °F 72% 30.04 in 10.0 mi Calm Calm - N/A   Clear
11:53 PM 53.1 °F 48.9 °F 86% 30.04 in 10.0 mi Calm Calm - N/A   Clear